Location: Bidart
(43.4376°N, 1.5913°W)
Time: 03:56:44
(UTC+00:00)

USA 229 DEB - Pass Details

Date: 17 April 2026
Orbit: 844 x 1364 km, 63.4° (Epoch: 10 January)

Event Time Altitude Azimuth Distance (km) Brightness Sun altitude
Rises 01:50:12 0° 322° (NW) 4,023 7.0 -31.1°
Reaches altitude 10° 01:52:48 10° 321° (NW) 3,127 6.3 -30.9°
Maximum altitude 02:00:25 75° 238° (WSW) 1,329 3.9 -30.2°
Enters shadow 02:01:22 68° 189° (S) 1,384 3.9 -30.1°
